User: anonymous   Login
Location: Brno
(49.2000°N, 16.6330°E)
Time: 20:16:03
(UTC+02:00)
Language:

Cosmos 1459 Rocket - Orbit

View from above orbital plane
View from above orbital plane
View from above satellite
View from above satellite

Ground track
Ground track

The orbit data is extracted from the following two-line orbital elements,

1 14059U 83042B   15115.48335954  .00000070  00000-0  53722-4 0  9990
2 14059 082.9692 283.5773 0041513 308.9165 103.0470 13.78509327607786
Epoch (UTC): 25 April 2015 11:36:02
Eccentricity: 0.0041513
inclination: 82.9692°
perigee height: 938 km
apogee height: 999 km
right ascension of ascending node: 283.5773°
argument of perigee: 308.9165°
revolutions per day: 13.78509327
mean anomaly at epoch: 103.0470°
orbit number at epoch: 60778

The dashed part of the orbit path shows where the satellite is in the earth's shadow,  

DLR